Location: Piotrkow Trybunalski
(51.4000°N, 19.6830°E)
Time: 05:43:44
(UTC+02:00)

A-11 Canister half - Pass Details

Date: 15 December 2023
Orbit: 1515 x 1684 km, 47.2° (Epoch: 09 September)

Event Time Altitude Azimuth Distance (km) Brightness Sun altitude
Exits shadow 03:26:32 29° 175° (S) 2,684 10.1 -38.0°
Drops below altitude 10° 03:31:40 10° 152° (SSE) 3,923 11.3 -37.2°
Sets 03:35:06 0° 145° (SE) 4,920 12.0 -36.7°
